Volver al catálogo

COSMOS 1030 DEB

LostHEO
NORAD 32974·DEBRIS·🇷🇺 Russia

Lanzado Sep 6, 1978 desde Plesetsk Cosmodrome

Loading…

Próximos Pases (próximas 24 horas)

TLE

ObsoletoSource: Space-Track

Época: Aug 14, 2015, 07:29 UTC

1 32974U 78083S   15226.31214396  .00000601  00000-0  00000+0 0  9992
2 32974  67.2799  65.2066 5711197  87.5226  50.9838  1.99619725 64667

Sigue COSMOS 1030 DEB en tiempo real con AllMySat

Download on the App Store